sat.trackr.live / text

‹ back to catalog

STARLINK-35718

NORAD 66894 · 2025-283S

PAYLOAD ACTIVE UNKNOWN

§ Identity

Operator
Country
US
Launch date
2025-12-04
Launch site
AFWTR
Launch vehicle
Mass (kg)
RCS (m²)

Purposes: comms

External: N2YO · Heavens-Above · Gunter

§ Orbital elements

Epoch: 2026-05-24T23:02:48.007104Z

Period
94.11 min
Inclination
53.1592°
Eccentricity
0.0000583
Mean motion
15.30193983 rev/d
Perigee alt
474.8 km
Apogee alt
475.6 km
Semi-major
6,853.4 km
B*
1.0261e-3
RAAN
29.7455°
Arg perigee
118.6211°
Mean anomaly
241.4848°
Rev number
2,752

§ Raw data

STARLINK-357181 66894U 25283S   26144.96027786  .00030148  00000+0  10261-2 0  99922 66894  53.1592  29.7455 0000583 118.6211 241.4848 15.30193983 27527

JSON: /api/v1/satellites/66894 · /tle

For live sub-satellite position, see the globe view (requires WebGL).

§ Visibility from observer

Set your observer location to see the next 7 days of passes ≥ 10°. The values pass through the URL so the page stays shareable.

No JS? Fill the form by hand. The geolocation button needs JavaScript.